User: anonymous   Login
Location: Caltech
(34.1382°N, 118.1253°W)
Time: 04:18:56
(UTC-07:00)
Language:

Cosmos 2219 Rocket - Orbit

View from above orbital plane
View from above orbital plane
View from above satellite
View from above satellite

Ground track
Ground track

The orbit data is extracted from the following two-line orbital elements,

1 22220U 92076B   18172.96695442 -.00000255 +00000-0 -10390-3 0  9996
2 22220 071.0000 000.8683 0010807 065.3028 042.0891 14.16431631322802
Epoch (UTC): 21 June 2018 23:12:24
Eccentricity: 0.0010807
inclination: 71.0000°
perigee height: 829 km
apogee height: 845 km
right ascension of ascending node: 0.8683°
argument of perigee: 65.3028°
revolutions per day: 14.16431631
mean anomaly at epoch: 42.0891°
orbit number at epoch: 32280

The dashed part of the orbit path shows where the satellite is in the earth's shadow,  

DLR